Weather in Tanalyk

Russia / Orenburg Oblast     52°02′01″N   58°56′16″E
temp.,
°C
wind,
m/s
gust,
m/s
humid.,
%
clouds,
%
prec.,
mm/h
press.,
hPa
HPBL,
m
4 march, thu
thu423:00−3sw51096100 0.4 1004366
02:00−3sw4997100 0.5 1003339
05:00−4w4797100 1.6 1003273
08:00−7wnw5991100 0.5 1003245
11:00−6w6118894 0.5 1006534
14:00−5w711836 0.0 1007849
17:00−7wsw5128627 0.0 1009578
20:00−9wsw7168812 0.0 1010434
5 march, fri
fri523:00−8sw8168846 0.0 1010602
02:00−5sw101888100 0.1 1007907
05:00−3sw101887100 0.1 1007925
08:00−4sw101887100 0.0 1008853
11:00−3sw101786100 0.1 1009952
14:00−2sw111786100 0.0 10081044
17:00−1sw121993100 0.6 10081215
20:000sw101789100 0.2 10071096
6 march, sat
sat623:000sw81590100 0.4 1008875
02:000wsw7139892 0.3 1009711
05:00−1wnw489796 1.3 1011408
08:00−6nnw3496100 0.5 101286
11:00−6wnw358896 0.6 1013177
14:00−5w238467 0.0 1014225
17:00−5ssw228983 0.0 101423
20:00−5s3393100 0.0 101352
7 march, sun
sun723:00−5se2297100 0.8 101158
02:00−5ene3597100 1.5 1008161
05:00−2sw1798100 3.5 1005338
08:00−3wnw2698100 1.9 1003244
11:00−5n4596100 4.2 1003221
14:00−5nnw5793100 0.3 1005438
17:00−6nw239397 0.4 100788
20:00−10wnw61187100 0.1 1011269
8 march, mon
mon823:00−16wnw6118759 0.1 1014196
02:00−18wnw59840 0.0 1016148
05:00−20wnw34870 0.0 101745
08:00−20ssw348910 0.0 101728
11:00−12sw6129054 0.0 1016473
14:00−8sw91586100 0.0 1015831
17:00−6sw91585100 0.0 10141041
20:00−6sw71589100 0.0 1015672